GFSCGP_850_dewp_276.txt.gz
Dewpoint
-8 -2 2 2 2 3 4 4 5 5 4 6 7 10 13 13 10 11 11 9 11 11 9 9 9 9 10 11 12 12 13 13 14 12 15 14 15 15 15 15 14 14 14 11
-6 -1 -1 1 2 2 3 4 5 5 4 2 5 7 10 10 12 11 12 10 10 11 12 10 10 11 11 12 13 13 12 11 13 13 15 16 15 15 15 14 13 14 15 15
-5 -4 -4 -1 1 1 2 4 6 6 5 3 2 5 13 12 11 10 9 9 7 9 11 12 11 12 12 13 13 14 13 13 13 13 16 16 16 15 14 14 14 15 15 14
-8 -8 -5 -2 0 -0 2 3 5 6 6 5 2 5 8 12 13 12 10 9 10 9 8 12 12 12 12 14 15 15 15 13 13 15 15 16 16 16 14 14 15 15 16 14
-7 -6 -5 -3 -3 -1 2 3 3 4 4 3 5 4 4 9 14 14 11 9 10 8 7 11 12 13 14 14 16 16 16 15 16 16 16 15 16 16 16 15 15 15 15 14
-9 -9 -7 -6 -6 -1 1 3 3 3 3 7 5 6 9 9 8 11 12 12 9 7 8 8 13 13 14 15 16 16 16 17 18 18 17 16 17 16 16 16 16 15 14 13
-12 -12 -11 -8 -6 -6 2 4 8 8 7 7 5 6 7 6 6 7 11 13 10 9 9 10 13 14 15 16 16 16 16 18 18 18 17 15 17 16 16 15 16 14 13 12
-9 -8 -6 -6 -6 -5 0 4 9 9 9 7 5 6 5 2 2 4 8 11 11 10 10 11 13 15 14 15 16 16 16 16 18 17 16 17 16 15 16 16 15 12 11 6
-8 -5 -7 -7 -7 -6 -5 2 6 7 7 6 5 5 4 4 3 5 9 9 11 11 10 12 13 14 14 15 16 16 15 15 16 17 17 17 16 17 16 9 4 9 11 11
-12 -9 -12 -9 -8 -7 -5 -2 2 4 7 7 6 6 7 6 3 7 10 13 12 12 12 15 13 13 15 15 16 16 14 14 16 17 17 17 17 16 6 8 12 12 13 14
-13 -10 -11 -8 -6 -6 -2 2 3 3 5 7 8 9 7 6 7 9 11 10 12 14 15 14 14 14 15 16 16 16 17 15 16 17 17 16 11 5 10 12 13 13 13 14
-12 -10 -8 -8 -8 -6 -3 1 2 6 5 5 7 8 6 8 8 10 12 10 11 13 15 13 14 15 15 16 16 17 17 16 17 17 14 9 9 11 12 12 13 14 15 15
-12 -9 -8 -8 -9 -4 -1 -2 -0 1 2 5 8 8 7 7 8 10 12 10 11 12 14 15 15 15 15 16 17 17 16 17 18 14 13 12 12 12 12 13 14 14 13 12
-9 -10 -9 -7 -6 4 -0 0 2 -2 1 4 7 8 8 7 8 8 10 9 11 13 14 15 15 15 15 16 17 17 17 17 18 15 11 13 13 14 14 14 14 13 13 11
-12 -11 -9 -5 -3 3 1 0 0 3 2 5 6 7 6 7 7 9 10 12 11 7 11 16 16 16 17 17 17 17 18 17 16 15 9 13 14 14 13 13 12 12 12 11
4 -10 -8 -6 3 3 3 2 1 1 1 2 6 7 6 7 7 8 11 12 11 8 10 15 13 11 16 17 16 17 16 16 16 12 12 14 14 13 12 13 12 11 12 13
7 4 -1 -5 -5 -3 -1 1 1 1 3 6 7 4 8 7 8 7 7 11 10 8 7 13 9 8 17 16 15 15 16 15 13 14 13 14 14 13 12 11 10 13 13 11
7 7 -0 2 4 5 -0 3 1 3 3 2 4 5 6 6 6 10 10 12 11 8 7 13 13 15 16 16 16 15 11 15 15 14 13 13 14 12 11 3 6 11 8 -1
6 1 1 4 7 5 3 1 2 6 6 9 4 8 6 4 6 10 11 12 14 14 15 17 16 16 16 16 15 10 12 14 14 14 13 14 12 8 7 8 9 5 -1 4
8 7 5 3 5 7 3 6 8 6 9 12 5 8 8 8 10 10 16 12 11 12 17 16 16 16 17 16 14 11 14 14 13 12 14 12 11 8 9 7 -1 -3 6 7
11 9 10 5 4 4 9 9 9 8 14 14 10 8 9 8 5 12 17 17 17 17 17 16 17 17 16 15 14 14 14 12 11 12 12 9 8 8 1 -5 -1 5 7 7
11 13 14 13 5 7 10 11 7 11 14 14 12 13 13 10 6 6 16 16 16 16 16 16 16 15 15 14 14 13 13 11 11 10 8 9 3 -4 -4 -2 4 5 3 -5
13 11 12 13 13 10 10 11 12 13 13 9 6 7 11 13 10 13 16 16 16 16 16 16 15 15 15 13 12 10 11 12 9 7 6 -2 -6 -3 0 3 4 -0 -5 -4
11 11 13 12 11 10 9 10 11 13 11 8 8 7 10 15 13 15 16 16 16 16 16 16 15 15 14 14 13 12 12 10 6 1 -4 -2 -2 1 4 2 1 0 -1 -4
11 12 11 11 11 10 7 9 9 9 10 11 9 8 9 13 15 16 15 16 16 16 16 15 15 14 14 12 11 11 8 3 -1 -3 -1 3 3 3 3 2 2 2 1 1
10 11 12 13 10 11 9 7 8 9 9 9 11 16 13 14 16 15 15 15 15 15 14 13 13 11 10 11 9 6 2 -0 -1 -1 3 4 3 2 1 2 2 2 2 2

GFSCGP_850_dewp_279.txt.gz
Dewpoint
-7 -3 0 1 2 3 3 4 5 5 4 7 11 8 12 13 11 13 13 12 13 11 11 9 9 8 9 10 11 11 11 12 13 13 14 15 13 15 13 13 14 13 14 14
-7 -4 -4 -1 1 2 3 3 3 5 5 4 8 9 13 13 12 12 12 13 13 12 11 10 9 9 9 9 11 11 12 13 13 14 13 14 15 15 15 15 14 14 14 15
-7 -6 -5 -2 -1 1 1 2 4 6 5 3 4 8 11 11 12 11 10 11 12 11 11 10 9 9 9 9 10 12 12 13 13 14 12 15 16 14 15 15 14 14 15 15
-10 -11 -8 -5 -2 0 2 0 2 6 6 7 3 6 8 13 12 11 11 10 10 7 11 11 9 10 9 10 11 13 13 14 11 12 13 15 15 15 15 14 15 15 15 16
-12 -6 -6 -4 -4 -1 -0 0 2 5 4 3 4 4 4 14 14 13 11 10 9 9 9 11 11 10 10 11 11 14 14 14 13 13 13 14 15 16 15 15 15 14 14 14
-12 -10 -8 -7 -7 -5 -3 2 3 3 4 6 4 5 6 10 11 14 12 10 8 9 9 9 11 12 11 12 12 15 16 15 14 14 14 16 16 16 16 16 15 15 14 13
-12 -12 -13 -11 -9 -7 2 4 7 7 6 7 5 6 5 6 7 9 12 11 8 10 9 10 11 12 13 13 13 14 16 16 16 17 17 18 17 16 16 16 15 14 12 10
-10 -9 -11 -9 -10 -8 -1 3 7 8 8 6 4 5 3 2 4 4 6 9 9 9 9 9 11 12 12 12 14 15 17 16 17 17 18 17 16 16 16 16 16 10 6 7
-8 -8 -9 -7 -7 -6 -4 4 3 6 5 6 4 3 2 4 6 6 8 10 10 9 8 9 11 12 12 13 14 16 16 16 16 18 18 17 16 15 15 15 9 12 13 12
-11 -10 -13 -12 -9 -9 -5 -1 4 4 7 7 6 6 6 5 8 8 10 12 11 10 11 11 13 12 12 13 15 16 16 14 15 17 17 17 16 15 13 6 12 12 13 14
-11 -12 -12 -12 -9 -9 -6 1 3 3 4 6 7 7 6 5 7 10 11 10 9 8 9 10 12 12 12 14 15 16 16 14 14 16 16 16 16 13 7 12 13 14 14 15
-13 -11 -10 -11 -12 -8 -6 -4 3 4 5 5 5 6 5 7 8 11 12 11 10 11 10 11 12 14 13 15 16 16 16 14 15 16 17 17 16 7 11 13 13 14 14 13
-11 -10 -9 -10 -11 -5 -2 -1 0 1 4 6 7 6 6 7 9 10 11 12 10 10 8 4 15 16 14 15 15 16 16 16 15 17 17 15 8 11 12 12 14 15 14 13
-11 -10 -10 -8 -8 -1 1 1 -0 -1 3 3 5 3 8 8 10 11 11 12 11 11 14 8 15 16 16 15 16 16 17 16 17 17 14 10 11 12 12 13 14 14 12 12
-5 -10 -10 -11 -10 1 2 -1 2 2 2 4 3 6 7 8 10 11 11 12 11 8 12 14 15 15 15 15 16 17 17 17 17 16 14 13 13 14 14 13 13 12 12 11
4 3 -5 -8 -0 2 2 0 1 2 2 2 1 4 4 7 8 10 11 12 11 11 13 14 14 13 15 16 17 17 16 16 17 15 14 13 14 14 13 12 13 11 10 12
6 7 6 7 -2 -3 -5 -7 -4 0 1 1 5 3 7 8 8 10 10 11 12 12 13 13 14 14 16 17 15 15 14 14 15 14 13 13 13 14 13 12 12 11 11 10
7 6 4 7 3 4 -2 -2 0 1 3 8 6 4 7 7 7 7 9 8 10 10 8 10 11 15 16 16 15 14 13 11 13 13 12 13 12 13 13 12 7 10 8 1
6 4 4 6 6 5 1 3 3 3 4 12 9 7 7 6 7 9 8 9 9 9 9 9 13 15 11 14 15 14 12 10 13 14 10 12 14 14 10 7 9 7 2 5
7 7 6 6 6 4 2 9 9 7 6 13 11 8 9 9 9 11 16 13 12 10 10 9 9 11 13 15 15 13 12 15 15 13 11 14 13 9 8 9 6 1 4 5
10 9 8 7 6 3 10 10 10 5 8 14 12 14 11 11 12 17 17 16 14 13 12 11 12 12 14 14 14 13 13 14 14 12 13 13 11 10 8 2 1 4 5 5
10 12 13 12 6 4 9 10 8 8 14 12 11 11 12 13 14 16 17 17 15 16 17 17 15 15 15 13 14 13 14 14 13 13 13 11 10 5 -1 -0 4 4 0 -4
11 11 12 11 11 9 10 11 12 12 14 10 8 7 7 6 8 8 13 17 17 17 17 17 15 15 14 15 13 14 13 12 12 11 10 8 0 -2 1 3 3 -2 -5 -4
10 11 12 11 10 11 8 9 12 13 14 10 5 6 5 4 3 5 14 15 17 16 16 16 15 14 13 13 14 13 11 11 11 11 5 -3 -4 0 3 1 0 -2 -4 -5
10 11 11 11 10 9 7 7 8 11 11 10 7 5 4 3 3 5 14 16 17 16 16 15 15 14 12 14 13 12 12 12 11 3 -2 -3 -2 -0 1 1 1 1 0 -1
10 9 11 12 9 9 7 7 7 9 9 11 7 5 5 5 5 11 15 16 16 15 15 15 14 13 13 13 13 13 12 8 2 -2 -2 -1 1 2 2 1 2 1 2 2

GFSCGP_850_dewp_285.txt.gz
Dewpoint
-5 -1 3 3 3 3 3 4 4 3 3 6 8 9 8 11 11 10 10 10 10 10 10 9 9 10 10 11 13 11 11 11 11 12 12 13 13 14 15 15 14 14 14 14
-6 -1 -0 1 2 2 3 3 3 3 3 6 7 6 6 10 11 11 11 10 11 10 12 10 8 9 9 8 9 12 12 12 11 12 13 13 13 14 15 15 14 14 14 14
-7 -4 -5 -1 1 2 2 3 2 2 2 3 5 6 7 11 12 11 11 11 11 11 11 11 10 9 10 10 9 9 11 12 11 11 13 13 14 14 15 15 15 15 15 14
-11 -10 -8 -4 -1 0 3 -0 -1 0 1 2 4 7 6 8 11 13 11 10 11 12 12 12 13 11 11 10 9 9 10 11 11 12 13 13 14 14 14 15 14 14 14 14
-11 -9 -8 -6 -4 -2 0 -3 -3 0 3 5 5 6 4 8 6 9 12 11 11 12 12 12 11 11 11 10 9 9 10 11 13 13 13 13 14 14 14 15 15 15 14 13
-11 -12 -7 -6 -6 -3 -5 -2 3 3 4 7 5 6 5 4 5 6 10 11 11 11 11 10 11 10 11 10 9 9 10 11 13 13 14 14 14 14 14 15 15 15 14 12
-11 -12 -12 -10 -10 -8 -5 -5 2 5 5 6 5 6 5 3 2 5 5 9 10 11 11 11 10 9 10 10 9 9 10 10 12 14 14 12 14 14 15 15 16 15 12 6
-9 -9 -12 -12 -11 -7 -7 -5 2 6 6 5 5 6 3 3 2 3 6 8 10 11 11 11 9 8 8 11 11 10 10 10 12 15 14 12 14 16 16 16 15 13 5 8
-7 -8 -11 -11 -11 -10 -0 -1 -1 0 4 4 3 4 2 2 3 4 3 6 10 10 10 11 9 8 9 9 11 10 10 10 12 15 14 13 14 16 16 15 15 7 10 12
-8 -7 -11 -12 -8 -5 -2 -0 2 4 6 5 5 7 3 6 4 3 4 5 6 10 11 11 9 8 9 9 11 11 11 11 12 16 15 14 16 16 16 15 9 12 12 13
-11 -10 -9 -10 -8 -7 -1 -1 2 3 4 3 3 2 4 6 4 4 3 6 7 9 11 11 10 8 9 9 11 12 12 12 13 16 16 16 17 16 15 15 11 12 13 13
-11 -11 -7 -9 -11 -10 -7 -4 -0 -3 3 5 4 1 1 3 4 5 5 7 9 10 10 10 10 8 9 9 11 13 14 14 14 16 16 16 14 16 15 9 13 13 14 14
-10 -9 -7 -8 -10 -8 -9 -6 -4 -2 0 5 1 -1 3 5 6 7 7 8 11 9 10 8 9 9 12 16 15 15 15 15 16 16 15 14 14 15 11 11 13 13 14 14
-12 -11 -6 -7 -7 -5 -0 0 -1 -1 3 2 3 0 2 2 5 4 7 10 12 10 11 12 15 16 15 16 17 16 16 16 15 14 14 15 15 14 9 13 13 13 14 13
-9 -0 -5 -7 -9 -10 -7 -4 1 1 2 3 1 5 3 3 3 2 5 10 12 13 13 15 16 17 15 16 18 18 15 14 9 9 12 15 15 11 11 12 12 13 13 13
3 5 4 4 -0 -8 -5 -2 -0 1 2 2 2 3 1 2 4 7 9 10 11 14 14 15 16 17 15 17 18 16 12 11 9 8 11 14 11 13 12 13 13 13 13 13
6 5 6 4 5 -1 -2 -5 -1 -2 -0 -3 -1 -4 2 4 7 8 10 11 11 13 14 13 12 18 17 18 17 14 12 7 7 9 12 11 9 13 13 13 14 13 13 13
8 8 7 4 6 6 -3 -1 -4 -6 -5 -2 -1 2 3 5 6 8 10 11 12 13 12 11 12 18 17 17 17 15 14 11 12 10 11 10 10 13 14 13 14 13 13 10
6 6 7 7 6 5 3 4 3 4 -0 3 4 3 6 7 7 7 10 12 12 12 11 12 13 14 16 17 16 15 13 14 12 11 11 9 11 14 12 13 13 13 10 6
7 5 7 6 6 4 -0 7 9 8 4 4 9 8 9 8 7 5 13 10 10 10 10 11 11 14 15 17 17 11 10 14 12 13 10 11 13 14 14 12 13 10 7 4
8 9 9 7 8 6 4 8 10 6 7 11 11 10 8 9 10 12 11 11 11 10 10 10 11 11 14 14 13 9 9 9 13 14 13 13 15 15 14 13 10 7 3 4
9 9 10 9 9 8 8 10 10 11 12 13 13 12 11 12 12 14 15 14 14 12 11 11 11 13 11 8 8 7 6 12 13 14 15 14 14 12 12 10 7 3 5 3
10 10 10 10 9 9 9 10 10 11 12 13 14 13 13 16 17 17 17 17 16 14 12 11 12 13 12 11 11 7 10 12 13 15 14 13 12 12 11 4 1 2 2 -3
9 10 11 11 10 10 9 9 10 10 12 11 13 13 11 11 11 16 17 17 17 16 14 13 13 13 13 12 11 7 12 13 12 14 14 13 12 9 1 2 1 -2 -4 -5
9 10 11 11 9 9 9 10 9 9 10 10 12 12 11 9 10 10 16 17 17 17 17 16 15 14 15 14 11 12 13 14 14 15 13 12 7 0 0 -1 -2 -4 -4 -5
9 10 9 8 9 10 8 9 9 9 8 11 11 11 12 9 12 13 13 15 16 16 16 16 16 16 15 14 14 14 14 14 14 13 12 8 0 1 0 -0 -1 -3 -5 -0

GFSCGP_850_dewp_291.txt.gz
Dewpoint
-2 0 1 -0 0 0 1 3 2 2 1 1 2 3 7 9 8 9 9 10 10 9 10 11 12 12 12 14 10 12 15 15 15 16 16 15 15 15 15 16 17 17 17 17
-4 -2 -3 -3 -2 -1 -0 3 2 0 1 2 1 3 2 8 8 8 8 9 10 10 9 10 11 12 12 13 15 15 16 16 16 15 15 15 15 16 16 16 17 17 16 15
-6 -5 -7 -5 -2 -0 1 2 1 3 2 1 1 3 3 3 5 7 8 8 9 10 9 10 10 11 12 13 14 15 16 17 17 16 16 16 16 17 15 16 15 14 15 15
-9 -10 -7 -6 -3 -2 1 -2 -1 1 3 3 1 4 8 6 6 7 7 8 7 9 9 9 9 10 11 12 13 15 17 17 18 16 16 16 16 16 16 17 17 14 16 17
-12 -12 -10 -7 -6 -6 -3 -4 -2 1 1 1 1 2 1 5 4 5 8 7 7 8 9 9 8 8 8 10 12 14 16 18 17 17 15 16 17 16 16 16 17 17 17 18
-15 -16 -14 -13 -11 -9 -7 -4 -1 -0 -1 2 -0 1 1 4 12 1 2 4 6 7 8 9 9 9 9 9 11 14 16 17 17 18 15 17 17 16 16 16 17 17 16 16
-14 -15 -14 -14 -10 -9 -7 -4 1 2 2 0 -3 -1 1 -1 2 -0 0 0 5 7 8 8 9 9 10 11 12 14 17 16 15 18 17 18 18 18 17 18 16 15 13 13
-10 -11 -15 -14 -12 -10 -6 -8 -3 2 -1 -4 -4 1 1 -2 -2 -3 -1 -0 4 6 7 8 8 10 12 13 13 14 17 17 17 17 18 19 18 17 17 16 16 14 11 13
-11 -10 -13 -15 -15 -13 -10 -6 -10 -10 -10 -7 1 13 2 -2 -3 -3 -2 -0 3 6 7 8 9 10 12 13 14 15 17 15 16 18 19 19 18 17 16 16 16 14 12 15
-11 -7 -11 -13 -14 -14 -12 -10 -8 -9 -3 -1 -4 2 -1 -0 -2 -3 -2 -1 1 6 7 8 9 10 11 13 15 15 17 13 14 17 18 19 18 18 17 17 16 12 15 16
-13 -11 -8 -11 -10 -13 -12 -11 -8 -7 -8 -4 -1 -1 2 -1 -3 -3 -2 -2 1 3 7 7 8 10 11 12 14 15 17 17 17 17 18 19 18 18 18 17 15 15 16 16
-11 -11 -8 -9 -11 -13 -13 -10 -10 -4 -1 -2 -1 0 2 -4 -5 -6 -4 -2 2 3 5 7 9 11 12 13 15 15 16 17 16 17 18 18 18 18 18 17 15 15 16 16
-8 -9 -8 -7 -11 -11 -10 -9 -9 -10 -8 -2 -1 1 -6 -6 -6 -6 -6 -1 3 7 6 8 9 11 13 14 15 16 16 16 16 17 16 18 17 17 18 17 15 15 15 16
-6 -9 -8 -7 -5 -7 -7 -9 -11 -10 -6 -5 -5 -6 -6 -4 -4 -4 2 3 4 9 9 9 11 13 15 16 16 16 17 17 17 16 18 17 15 17 17 16 15 16 16 16
-4 -5 -3 -6 -6 -7 -9 -10 -9 -8 -8 -6 -6 -3 -3 -4 -5 -2 2 6 5 11 10 10 12 14 16 18 19 18 18 18 15 13 17 15 17 16 17 15 13 13 14 13
-3 -2 -2 0 -2 -4 -5 -9 -11 -11 -8 -6 -6 -5 -6 -8 -7 -3 5 7 8 11 11 12 12 15 19 20 19 19 19 14 14 19 18 16 15 15 15 15 11 12 12 13
-0 -0 1 2 -1 -2 1 -3 -8 -10 -9 -7 -5 -5 -7 -7 -7 -7 4 7 8 11 12 14 16 19 19 18 19 19 15 18 18 14 13 13 14 14 13 14 12 13 12 12
0 2 1 2 1 4 -2 -3 -3 -8 -10 -10 -7 -8 -8 -8 -8 -8 -0 7 8 12 14 16 19 18 18 18 18 18 16 14 11 11 14 16 14 15 14 12 10 12 12 12
-1 1 2 3 3 1 -2 -0 5 6 -7 5 5 3 -0 -3 -1 8 10 8 8 12 15 17 18 17 17 17 17 16 14 11 11 12 13 15 14 14 13 10 11 12 12 13
1 1 3 3 5 5 1 2 2 1 3 8 9 9 8 7 1 12 13 12 11 12 15 17 17 17 17 16 16 17 13 11 13 16 14 15 16 14 10 9 13 12 13 12
5 4 3 3 4 2 5 4 3 5 9 9 9 10 10 10 10 11 14 14 13 13 15 15 16 16 17 17 17 17 17 16 15 15 16 16 15 11 12 13 12 13 12 8
5 6 6 5 8 8 7 5 7 9 8 9 10 11 11 10 11 17 16 16 16 14 15 15 16 17 17 17 17 17 16 17 16 16 15 15 15 14 13 13 13 13 10 5
4 3 5 8 8 11 10 6 8 7 8 9 9 10 12 11 11 16 17 17 15 14 16 17 17 17 18 18 17 17 17 17 16 15 15 15 15 14 14 14 13 11 5 7
6 5 7 5 4 7 6 7 7 7 9 9 8 9 11 11 10 15 17 17 16 17 16 17 18 18 18 18 16 16 16 16 16 16 15 15 15 15 14 13 11 10 8 5
5 8 7 6 4 4 6 7 6 6 7 8 9 11 11 10 10 14 17 17 17 17 16 17 18 18 18 17 17 16 13 16 16 15 15 15 14 14 13 11 9 7 5 3
3 4 5 7 8 8 9 7 5 5 6 8 8 10 10 11 10 14 17 17 17 17 18 18 17 17 17 17 16 15 16 16 15 15 15 15 14 13 10 9 7 5 4 -1